[[{"header":{"parameterUnit":"m.s-1","parameterCategory":1,"la1":30.2991,"la2":30.254,"lo1":-89.0895,"lo2":-89.0444,"dy":0.0017,"dx":0.0017,"nx":28,"ny":28,"refTime":"2025-07-27T21:00:00:Z","depth":0,"parameterNumber":2,"parameterNumberName":"U-component_of_WINDS"},"data":[0,0,0,0,0,0,0,0,0,0,0,0,0,0,0,0,0,0,0,0,0,0,0,0,0,0,0,0,0,0,0,0,0,0,0,0,0,0,0,0,0,0,0,0,0,0,0,0,0,0,0,0,0,0,0,0,0,0,3.0088,3.009,0,3.0196,3.0197,3.0199,3.0149,3.0146,3.0143,3.0141,3.0258,3.0263,3.0269,0,0,0,0,0,0,0,0,0,0,0,0,0,2.9847,2.9852,3.0088,3.009,3.0091,3.0196,3.0197,3.0199,3.0149,3.0146,3.0143,3.0139,3.0256,3.0263,3.0269,0,0,0,0,0,0,0,0,0,0,0,0,0,2.9953,2.9853,3.0088,3.0079,3.0079,3.0196,3.0197,3.0199,3.015,3.0146,3.0142,3.0138,3.0254,3.0262,3.027,3.0405,0,0,3.0296,3.03,0,0,0,0,0,0,0,0,2.9947,2.9962,3.0079,3.0079,3.008,3.0155,3.0155,3.0268,3.0151,3.0123,3.0141,3.0136,3.0227,3.0238,3.0267,3.041,3.0415,3.0297,3.0302,3.0306,3.0308,0,0,0,0,0,0,0,2.994,2.9957,3.0131,3.008,3.0081,3.0072,3.0082,3.0177,3.0197,3.0125,3.0122,3.0135,3.0227,3.0259,3.0269,3.0417,3.0297,3.0304,3.0309,3.0313,3.0679,3.0683,0,0,0,0,0,0,2.9932,2.9952,3.0128,3.0134,3.0002,3.0079,3.0091,3.0135,3.0196,3.0201,3.0138,3.0132,3.0246,3.026,3.0273,3.0436,3.0306,3.0314,3.0318,3.0674,3.068,3.0685,0,0,0,0,0,0,2.9927,2.9948,3.0123,3.0042,3.0064,3.0088,3.0137,3.0139,3.0171,3.0206,3.021,3.0167,3.0244,3.0261,3.0373,3.0439,3.0317,3.0325,3.0669,3.0676,3.0682,3.0762,0,0,0,0,0,0,2.992,2.9947,2.9996,3.0043,3.0068,3.0218,3.0141,3.0144,3.0185,3.0178,3.0233,3.0239,3.0242,3.036,3.0381,3.0449,3.0332,3.0663,3.0672,3.068,3.0753,3.077,3.0785,0,0,0,0,0,2.9912,3.0015,2.9998,3.002,3.013,3.0222,3.0237,3.0236,3.0191,3.0242,3.0264,3.0237,3.0429,3.0372,3.0395,3.0466,3.0659,3.0669,3.0679,3.0746,3.0767,3.0785,0,0,0,0,0,0,2.9976,3.0021,3.0003,3.0124,3.017,3.0213,3.0277,3.0258,3.0319,3.031,3.0309,3.0322,3.0438,3.0463,3.0399,3.0601,3.0537,3.0553,3.058,3.06,3.0616,3.0607,3.0339,0,0,0,0,0,3.0003,3.0073,3.0109,3.0212,3.0236,3.0253,3.0293,3.0289,3.0337,3.0357,3.0387,3.0437,3.0509,3.0556,3.0624,3.0757,3.077,3.0818,3.0834,3.0847,3.086,3.0935,3.0958,3.0719,3.0719,3.0719,0,0,3.0062,3.0095,3.0139,3.0226,3.0261,3.0335,3.027,3.035,3.0406,3.037,3.0476,3.0501,3.0557,3.068,3.0736,3.0705,3.0929,3.086,3.087,3.0877,3.0948,3.0971,3.0991,3.0726,3.0725,3.0724,0,0,3.0207,3.0238,3.0328,3.0365,3.0418,3.0429,3.0451,3.0499,3.0513,3.062,3.0595,3.0663,3.0785,3.0827,3.0864,3.1028,3.1006,3.105,3.1134,3.1207,3.1226,3.1242,3.1302,3.1323,3.1064,3.1064,3.1064,0,3.0274,3.0382,3.0378,3.0461,3.0501,3.047,3.0564,3.06,3.0674,3.0703,3.0667,3.0822,3.0857,3.0991,3.1031,3.1062,3.1089,3.1043,3.1223,3.124,3.1255,3.1312,3.1335,3.1069,3.1068,3.1068,3.1067,0,3.0462,3.0538,3.0605,3.0675,3.0723,3.0811,3.0823,3.0873,3.0866,3.0882,3.0993,3.1034,3.111,3.1142,3.1136,3.1276,3.1255,3.1221,3.1157,3.1283,3.1337,3.1358,3.1076,3.1074,3.1073,3.1072,0,0,3.0648,3.0716,3.0741,3.0774,3.0831,3.0891,3.098,3.1053,3.1096,3.1149,3.1224,3.133,3.13,3.1342,3.1341,3.1405,3.1535,3.1364,3.1365,3.1395,3.1694,3.1719,3.1744,3.152,3.1525,3.1528,3.1689,0,3.0798,3.0949,3.095,3.109,3.1162,3.1136,3.1213,3.1259,3.1277,3.1342,3.1364,3.1439,3.1392,3.1418,3.148,3.1505,3.1595,3.1494,3.1593,3.1596,3.1579,3.1772,3.1798,3.1948,3.171,3.1714,3.1716,0,3.0992,3.1049,3.1197,3.1246,3.1276,3.1345,3.1414,3.1476,3.1529,3.1538,3.1586,3.1576,3.1669,3.1603,3.1732,3.1664,3.1705,3.1724,3.173,3.1739,3.1664,3.1787,3.1996,3.2019,3.1749,3.1746,3.1744,0,3.1114,3.1229,3.1332,3.1361,3.1421,3.1471,3.1498,3.1546,3.1591,3.1652,3.1682,3.1754,3.1794,3.1851,3.1862,3.1812,3.1993,3.1926,3.2005,3.2005,3.2044,3.2041,3.2263,3.207,3.207,3.2069,3.2069,0,3.1281,3.1372,3.1388,3.1452,3.1555,3.1557,3.166,3.1684,3.1728,3.1798,3.178,3.1847,3.1857,3.1928,3.1938,3.2045,3.2063,3.2075,3.2076,3.2076,3.2075,3.2103,3.2093,3.2075,3.2074,3.2073,3.2072,0,3.1434,3.1448,3.1559,3.1607,3.1622,3.1696,3.1738,3.1801,3.1818,3.1907,3.1929,3.1956,3.2039,3.2055,3.2153,3.2159,3.2287,3.2278,3.2269,3.2268,3.2346,3.2338,3.2593,3.2627,3.2412,3.2414,3.2416,0,3.1539,3.1609,3.1665,3.1709,3.1739,3.1812,3.1857,3.1863,3.1912,3.1978,3.2034,3.2114,3.2178,3.2311,3.2342,3.2417,3.241,3.2495,3.2421,3.242,3.2412,3.2408,3.2416,3.2508,3.2511,3.2512,3.2514,0,3.1726,3.173,3.1794,3.1863,3.1918,3.1973,3.2025,3.2063,3.2076,3.2133,3.2215,3.2265,3.2365,3.2445,3.2521,3.2553,3.2537,3.2537,3.2559,3.256,3.2552,3.2558,3.2307,3.2531,3.2529,3.2528,3.2527,3.2526,3.1859,3.192,3.1969,3.2043,3.2083,3.2133,3.2194,3.2219,3.2287,3.2367,3.2368,3.2459,3.2513,3.2613,3.2649,3.2723,3.2697,3.2729,3.2737,3.2745,3.2752,3.254,3.2737,3.2736,3.2736,3.2736,3.2735,0,3.2044,3.2075,3.2143,3.2216,3.2275,3.2253,3.2311,3.2362,3.2442,3.2493,3.2556,3.2653,3.2732,3.2769,3.2848,3.29,3.2895,3.292,3.2916,3.2924,3.2771,3.2744,3.2923,3.2923,3.2923,3.2923,3.2923,3.2923,3.2148,3.2251,3.2262,3.2386,3.2417,3.2504,3.2539,3.2586,3.2626,3.2735,3.2799,3.2822,3.2869,3.2951,3.3024,3.3033,3.3063,3.3092,3.3098,3.2954,3.2935,3.2917,3.2891,3.3099,3.3099,3.3246,3.3247,3.3248]},{"header":{"parameterUnit":"m.s-1","parameterCategory":1,"la1":30.2991,"la2":30.254,"lo1":-89.0895,"lo2":-89.0444,"dy":0.0017,"dx":0.0017,"nx":28,"ny":28,"refTime":"2025-07-27T21:00:00:Z","depth":0,"parameterNumber":3,"parameterNumberName":"V-component_of_WINDS"},"data":[0,0,0,0,0,0,0,0,0,0,0,0,0,0,0,0,0,0,0,0,0,0,0,0,0,0,0,0,0,0,0,0,0,0,0,0,0,0,0,0,0,0,0,0,0,0,0,0,0,0,0,0,0,0,0,0,0,0,1.6315,1.6317,0,1.653,1.6532,1.6535,1.6541,1.6539,1.6536,1.6533,1.6757,1.6765,1.6773,0,0,0,0,0,0,0,0,0,0,0,0,0,1.5911,1.5918,1.6315,1.6317,1.632,1.6529,1.6532,1.6535,1.6542,1.6538,1.6535,1.6532,1.6754,1.6764,1.6774,0,0,0,0,0,0,0,0,0,0,0,0,0,1.6102,1.592,1.6314,1.6348,1.6353,1.6529,1.6532,1.6536,1.6542,1.6538,1.6534,1.6531,1.6751,1.6763,1.6776,1.6932,0,0,1.6814,1.6819,0,0,0,0,0,0,0,0,1.6091,1.6117,1.6341,1.6346,1.6352,1.6504,1.6472,1.6669,1.6543,1.6471,1.6533,1.6529,1.6676,1.6695,1.6744,1.6943,1.6952,1.6815,1.6823,1.6828,1.6832,0,0,0,0,0,0,0,1.6078,1.6108,1.64,1.6344,1.6351,1.6353,1.6376,1.6509,1.6593,1.6477,1.6478,1.6503,1.6679,1.6732,1.6749,1.6956,1.6815,1.6826,1.6834,1.6839,1.7291,1.7295,0,0,0,0,0,0,1.6057,1.6096,1.6393,1.6406,1.6209,1.6364,1.6389,1.646,1.6592,1.6608,1.6506,1.6502,1.6712,1.6735,1.6757,1.6948,1.6828,1.684,1.6847,1.7286,1.7292,1.7296,0,0,0,0,0,0,1.6049,1.6084,1.6384,1.6252,1.629,1.6375,1.6454,1.6466,1.6519,1.6614,1.6629,1.6545,1.671,1.6739,1.6888,1.6956,1.6846,1.6857,1.7281,1.7288,1.7294,1.7331,0,0,0,0,0,0,1.6037,1.6081,1.6141,1.6253,1.6297,1.6511,1.6458,1.6473,1.654,1.6538,1.6654,1.667,1.6709,1.6869,1.69,1.6971,1.6867,1.7275,1.7284,1.7292,1.7324,1.7338,1.735,0,0,0,0,0,1.6023,1.6144,1.6144,1.618,1.6374,1.6515,1.6541,1.6583,1.6546,1.6607,1.6667,1.6666,1.6943,1.6884,1.6919,1.6995,1.7271,1.7282,1.7291,1.7318,1.7335,1.735,0,0,0,0,0,0,1.604,1.616,1.6161,1.6322,1.6408,1.6516,1.6595,1.66,1.6699,1.6693,1.6741,1.6768,1.6915,1.697,1.6902,1.7152,1.7103,1.712,1.7111,1.7128,1.7141,1.7125,1.6877,0,0,0,0,0,1.6063,1.6166,1.6265,1.6398,1.6441,1.651,1.6574,1.6598,1.669,1.6727,1.6798,1.6888,1.6994,1.7064,1.7168,1.7331,1.7356,1.7401,1.7413,1.7424,1.7439,1.7527,1.7548,1.7329,1.7329,1.7329,0,0,1.6111,1.6189,1.6252,1.6404,1.6473,1.658,1.6541,1.6656,1.6736,1.6745,1.6888,1.6943,1.7047,1.7202,1.7275,1.7253,1.7504,1.7436,1.7444,1.7454,1.7539,1.756,1.7578,1.7336,1.7335,1.7334,0,0,1.6252,1.6322,1.6439,1.6509,1.6614,1.6659,1.6686,1.6793,1.683,1.6974,1.6982,1.7077,1.7261,1.7333,1.7394,1.7559,1.7561,1.7592,1.766,1.7746,1.7763,1.7778,1.7836,1.7857,1.7606,1.7606,1.7606,0,1.6299,1.646,1.6499,1.6614,1.668,1.669,1.6809,1.6875,1.7009,1.7054,1.7027,1.7256,1.7326,1.7498,1.7537,1.7587,1.762,1.7579,1.7757,1.7773,1.7788,1.7844,1.7866,1.7609,1.7609,1.7608,1.7608,0,1.6511,1.6622,1.6704,1.6831,1.6906,1.7023,1.708,1.7151,1.7168,1.7215,1.7361,1.7445,1.7565,1.7607,1.7626,1.7782,1.7764,1.7746,1.7698,1.7811,1.7864,1.7886,1.7613,1.7612,1.7611,1.7611,0,0,1.6673,1.6818,1.6848,1.6904,1.7019,1.7106,1.7221,1.7337,1.7396,1.7487,1.7585,1.7738,1.7722,1.7791,1.7817,1.7892,1.8016,1.7865,1.7868,1.789,1.8191,1.8204,1.8228,1.8017,1.8021,1.8024,1.8182,0,1.6827,1.7033,1.707,1.7249,1.7351,1.736,1.7461,1.7542,1.7588,1.7682,1.7733,1.7841,1.7811,1.7852,1.7927,1.7985,1.8077,1.7974,1.8108,1.8113,1.8083,1.8256,1.8271,1.8416,1.8203,1.8206,1.8209,0,1.7036,1.7129,1.7318,1.7416,1.7461,1.7551,1.7658,1.7747,1.7838,1.7867,1.7942,1.7959,1.8078,1.8023,1.8188,1.8117,1.8173,1.821,1.8217,1.8232,1.8168,1.8276,1.8463,1.8485,1.8242,1.824,1.8237,0,1.7134,1.7308,1.7442,1.7491,1.7609,1.7672,1.7724,1.7811,1.7877,1.7971,1.8014,1.8121,1.818,1.8262,1.8307,1.8263,1.8469,1.8417,1.8495,1.8494,1.854,1.8537,1.8739,1.8575,1.8575,1.8575,1.8574,0,1.7303,1.7418,1.7488,1.7571,1.7699,1.7741,1.7867,1.7918,1.7995,1.8088,1.8102,1.8189,1.8243,1.8337,1.8373,1.8503,1.853,1.8556,1.8564,1.8555,1.8552,1.8594,1.8585,1.858,1.8579,1.8578,1.8577,0,1.7435,1.7487,1.7634,1.7733,1.776,1.7851,1.7935,1.8016,1.806,1.8178,1.8207,1.8278,1.839,1.8442,1.8581,1.8604,1.8752,1.8754,1.8721,1.8725,1.88,1.8792,1.9037,1.9071,1.8884,1.8886,1.8887,0,1.754,1.7628,1.7735,1.7798,1.7851,1.7952,1.8019,1.8062,1.8131,1.8239,1.8307,1.8418,1.851,1.8687,1.8751,1.8856,1.886,1.8939,1.8876,1.8864,1.8861,1.8856,1.8864,1.895,1.8952,1.8954,1.8955,0,1.772,1.774,1.7835,1.7939,1.8018,1.8102,1.8184,1.8235,1.8291,1.8367,1.848,1.8551,1.869,1.8801,1.8909,1.8963,1.8969,1.8973,1.8997,1.8989,1.8967,1.898,1.8752,1.8968,1.8967,1.8966,1.8965,1.8965,1.7842,1.792,1.8007,1.8112,1.8178,1.8254,1.8333,1.8387,1.8482,1.8598,1.8617,1.8737,1.8824,1.897,1.9027,1.9121,1.9103,1.9138,1.9147,1.9155,1.9158,1.895,1.9141,1.9141,1.9141,1.9141,1.914,0,1.8023,1.8078,1.8174,1.8288,1.837,1.8365,1.8455,1.8524,1.8629,1.8709,1.8798,1.8926,1.9032,1.9103,1.921,1.9272,1.9277,1.9299,1.9295,1.9307,1.9169,1.9138,1.9293,1.9293,1.9292,1.9292,1.9292,1.9292,1.8126,1.8258,1.8288,1.8451,1.8506,1.8622,1.8674,1.8744,1.8807,1.895,1.9037,1.9082,1.9158,1.927,1.9366,1.9384,1.9423,1.9445,1.9463,1.9333,1.9317,1.9302,1.9273,1.9453,1.9454,1.9593,1.9594,1.9595]}]]